Temp
20 17 16 17 18 20 22 22 21 20 21 21 18 17 18 19 18 17 17 16 17 18 21 24 24 25 24 23 22 21 20 19 18 17 17 17 17 17 17 17 18 18 17 17
17 17 18 19 20 21 22 21 20 20 20 20 19 18 18 18 20 19 20 17 17 17 19 21 23 24 24 24 22 22 20 19 18 18 17 16 16 17 17 17 17 17 18 18
17 20 19 21 21 21 21 20 20 21 19 19 18 17 19 20 18 19 18 18 18 18 18 18 20 22 23 22 23 22 21 20 18 17 16 16 15 15 16 16 17 17 17 17
18 19 19 20 20 20 20 20 20 20 18 17 18 16 16 22 21 21 20 18 17 17 18 18 19 20 20 22 23 22 21 20 19 18 16 16 15 14 14 15 16 16 16 16
18 18 18 19 19 19 19 20 20 20 18 17 17 16 16 17 21 21 21 21 19 18 17 18 18 21 22 22 22 22 21 20 19 18 16 15 14 14 14 14 15 15 15 15
17 17 18 18 16 18 17 18 17 16 15 14 15 16 15 19 21 23 22 21 21 20 19 19 20 20 21 21 21 21 20 19 18 17 16 15 15 14 14 14 14 14 14 14
17 17 17 17 16 16 18 16 15 14 12 14 15 15 17 20 21 23 23 21 21 20 19 19 20 18 19 19 19 19 18 18 18 17 16 16 15 15 15 14 14 13 13 13
15 16 15 16 16 16 15 16 14 15 13 14 14 15 19 19 19 23 21 20 19 18 16 16 16 17 17 17 17 17 17 17 17 16 16 16 15 15 14 14 14 13 13 13
15 16 15 15 17 17 16 16 16 15 6 10 15 16 18 19 20 19 19 19 16 17 16 16 15 16 16 17 17 17 16 16 16 16 16 15 15 15 14 14 13 13 13 12
18 17 13 14 17 15 16 16 15 12 13 12 15 16 17 19 20 20 19 17 17 16 14 13 13 15 15 16 16 16 15 15 16 15 15 15 15 14 14 14 13 13 12 12
16 16 13 15 14 15 15 16 16 16 13 13 13 16 16 19 19 17 17 18 18 16 15 14 14 16 16 17 17 16 16 16 15 16 16 15 15 14 13 13 13 12 12 12
16 14 10 14 15 15 15 15 15 13 14 12 12 18 19 17 17 17 18 18 18 17 15 14 15 16 16 16 18 18 17 16 17 16 16 16 15 14 13 12 12 12 11 11
14 11 9 12 14 14 15 15 16 15 11 13 12 17 17 15 17 16 17 19 17 19 18 15 14 14 16 17 16 17 19 19 18 17 16 16 15 13 12 12 12 11 11 10
13 11 12 12 13 14 13 13 14 15 12 14 14 17 18 17 16 16 16 16 17 17 16 15 14 15 15 17 18 19 19 19 18 17 16 15 16 14 13 12 11 10 10 10
12 11 11 12 13 13 12 12 12 11 12 11 15 13 16 15 16 17 16 16 16 15 16 15 15 13 17 18 19 18 18 18 17 16 15 16 16 14 12 11 10 9 9 9
10 10 11 10 11 12 11 12 12 12 12 12 13 13 16 16 16 16 15 15 14 14 14 14 14 14 15 17 16 15 15 15 15 15 15 15 14 13 12 10 9 8 8 8
10 9 10 11 10 10 10 11 12 13 14 15 14 15 16 15 15 15 15 14 13 11 11 10 10 10 10 11 11 11 11 12 12 12 13 12 11 10 10 9 8 7 7 7
10 9 9 8 8 10 11 12 12 12 13 14 14 15 15 15 12 13 12 10 10 10 9 9 8 8 9 9 10 9 10 9 9 9 9 9 9 8 7 7 7 6 6 5
9 9 7 4 4 8 11 12 12 12 12 13 13 14 12 9 9 12 9 10 10 9 8 8 8 7 8 9 9 8 8 8 7 7 7 6 6 6 5 5 5 4 4 3
7 9 8 1 6 5 10 12 12 11 10 9 9 9 8 8 9 8 9 8 8 8 9 8 9 8 7 8 6 6 7 6 5 5 4 4 4 3 3 3 2 2 2 2
7 7 8 8 6 4 7 8 12 8 9 5 9 9 8 8 9 9 7 7 8 8 8 9 8 7 7 6 5 4 4 4 3 2 2 2 2 2 1 1 0 1 0 -0
6 6 6 8 7 7 8 8 8 8 7 5 7 6 7 6 6 5 5 5 5 5 6 7 6 6 5 3 2 2 1 2 1 1 0 0 -0 -0 -0 -0 -1 -1 -1 -2
4 5 3 5 6 7 9 8 8 7 8 8 8 7 6 6 5 6 5 5 5 5 5 5 5 5 5 3 1 1 2 0 -0 -0 -1 -2 -2 -2 -2 -2 -2 -3 -3 -3
2 1 3 4 4 3 7 7 7 7 7 7 6 5 5 5 5 4 3 4 4 3 3 4 3 2 2 2 0 -0 -0 -1 -2 -2 -3 -3 -3 -3 -3 -3 -3 -3 -3 -4
3 2 1 1 2 2 2 4 6 6 6 5 4 4 4 4 4 3 3 1 2 2 2 2 1 -0 -0 -1 -1 -2 -2 -3 -3 -3 -4 -4 -4 -4 -4 -4 -4 -4 -4 -3
3 4 2 1 3 3 4 4 4 4 4 4 3 3 3 2 2 2 1 2 2 1 2 -0 -1 -2 -2 -3 -3 -4 -3 -3 -3 -4 -4 -4 -4 -4 -3 -3 -3 -3 -3 -3
Height
806 821 829 822 818 815 815 820 826 824 814 818 825 824 817 806 806 805 802 799 796 790 781 783 785 788 791 795 799 802 806 810 816 820 825 828 829 833 836 839 842 845 847 848
818 824 812 811 812 811 814 821 827 822 818 818 821 820 810 804 792 792 789 793 790 787 781 778 779 782 785 787 791 796 798 803 808 813 816 822 825 827 830 833 836 838 840 842
819 807 804 805 811 813 816 825 822 825 820 819 824 826 808 793 789 785 783 780 778 777 776 774 773 774 777 780 784 788 791 796 801 806 812 817 821 823 825 825 828 830 834 836
808 802 805 808 813 816 823 817 817 820 832 844 824 850 821 793 790 782 779 777 773 772 770 768 767 768 771 773 777 781 786 790 795 800 803 806 811 813 814 819 821 824 828 830
810 809 809 814 814 812 820 814 817 820 831 835 836 849 820 806 798 786 773 772 770 768 767 766 765 765 766 770 774 779 783 787 789 793 797 802 806 808 811 814 817 820 823 825
806 804 806 809 816 811 816 819 827 835 843 857 839 838 830 804 789 778 771 771 768 767 767 766 765 766 766 769 773 777 781 783 787 791 794 797 800 803 806 808 809 812 818 821
809 810 809 807 819 819 815 830 854 859 868 851 834 838 813 789 780 771 770 772 770 769 768 768 768 768 769 769 772 776 780 783 787 789 791 793 796 798 801 804 806 808 809 810
819 823 813 808 810 820 824 825 850 856 862 847 834 831 798 780 773 768 768 771 773 772 771 771 769 770 770 772 775 778 780 782 784 786 788 790 792 794 795 796 798 799 800 801
813 811 804 804 800 804 824 828 820 836 891 867 833 813 790 779 775 772 773 774 778 775 773 772 770 770 771 772 774 776 778 780 781 782 784 785 787 788 788 789 791 791 793 794
792 805 812 808 801 807 808 811 834 849 858 861 831 820 810 788 780 771 777 780 779 778 777 775 773 773 774 775 775 777 778 777 777 778 779 780 780 781 781 782 782 783 783 785
789 799 816 808 810 810 815 815 817 822 837 843 847 817 790 781 777 781 781 779 778 779 779 777 775 773 773 773 774 774 774 775 775 774 773 773 773 773 774 774 774 776 779 779
786 799 826 810 801 801 800 807 811 831 831 838 834 794 776 780 779 778 780 780 779 779 778 778 773 772 773 772 772 772 771 771 771 771 770 769 769 768 767 767 767 770 771 773
787 810 838 817 810 806 804 805 802 810 826 823 840 785 776 781 781 782 781 778 777 776 774 775 775 774 772 771 770 768 767 766 765 765 763 763 762 761 761 761 762 763 765 767
786 804 805 809 804 802 811 811 808 806 826 808 809 786 781 779 781 782 785 783 780 780 777 775 772 769 767 766 765 763 761 761 760 759 758 756 755 753 752 754 755 756 758 759
791 805 808 803 801 805 810 814 814 818 814 821 795 803 786 791 787 782 783 779 780 779 778 775 773 769 765 763 760 758 757 756 755 754 753 751 749 748 748 748 749 750 751 751
798 809 806 810 808 806 815 808 809 808 808 804 800 795 783 781 778 781 780 778 778 776 774 772 769 766 763 761 758 756 754 752 751 748 745 744 744 744 743 742 743 744 747 748
801 807 808 803 806 810 814 799 800 794 789 790 794 782 777 774 778 779 776 775 777 781 779 777 775 771 767 762 760 756 753 750 747 744 741 738 739 739 739 738 737 738 739 742
799 807 813 818 815 810 788 784 782 785 784 785 784 776 774 773 777 776 777 783 782 780 777 775 773 769 765 762 757 753 751 747 743 740 737 733 731 732 734 735 736 736 736 736
799 802 823 846 846 809 787 781 783 785 786 780 779 777 779 784 780 775 778 779 779 778 776 774 771 768 764 759 756 752 748 745 741 737 734 731 729 727 727 729 731 732 734 734
801 800 807 856 828 840 779 775 775 781 790 787 786 789 790 789 788 784 777 775 775 775 773 770 767 764 761 757 754 750 744 740 736 734 731 728 726 726 727 727 728 729 730 732
805 805 801 803 816 821 780 782 777 803 791 793 787 787 788 789 788 778 775 773 770 769 769 766 763 761 756 752 750 745 743 738 734 732 731 729 727 724 723 726 729 729 730 732
794 803 803 799 807 803 774 779 788 787 786 788 786 786 786 785 780 778 773 770 767 765 761 761 757 752 749 747 745 742 738 735 732 729 729 728 729 728 725 725 727 727 730 732
804 788 806 794 790 775 770 775 776 780 781 780 780 780 780 780 777 773 770 766 763 761 759 756 754 747 742 741 740 735 733 731 730 725 727 729 728 729 729 727 726 727 730 733
789 789 793 790 781 782 773 776 776 776 778 778 778 777 777 776 773 770 769 764 760 756 754 751 749 744 739 736 736 735 731 731 729 721 725 726 731 731 730 730 729 729 731 733
783 785 793 795 782 782 778 773 773 775 775 775 773 772 770 771 767 765 763 761 757 753 748 745 742 740 737 735 731 733 734 731 730 723 721 725 731 732 731 731 731 733 736 736
775 773 784 791 778 780 778 772 770 771 771 770 768 764 762 764 763 760 758 755 754 749 745 741 739 739 736 733 733 730 729 732 731 726 723 722 730 731 733 731 732 736 738 738
Wind_Speed
0 4 6 10 8 6 4 3 0 2 2 3 6 8 12 11 8 10 11 11 10 12 15 22 32 38 36 37 37 39 41 41 40 40 43 35 37 35 34 33 33 35 35 34
5 4 8 6 6 5 2 2 3 1 1 2 4 12 10 11 13 11 13 10 11 8 9 16 22 34 39 39 41 39 41 41 41 41 41 35 34 39 39 38 35 33 34 34
6 3 6 5 2 4 2 4 3 2 3 2 2 9 6 6 5 7 9 11 9 12 11 10 15 28 39 40 42 43 43 42 41 40 37 35 31 34 36 39 40 40 38 35
5 4 5 3 3 4 2 1 5 3 4 3 4 6 5 7 11 7 9 10 10 9 8 8 10 17 32 42 43 42 42 42 42 42 40 40 32 30 35 34 42 41 41 38
7 6 5 3 4 6 5 0 4 3 2 2 2 1 7 5 6 10 10 6 5 6 8 9 8 10 23 35 38 38 37 37 40 42 41 39 36 34 32 33 35 39 40 42
3 1 3 6 3 1 7 5 6 5 3 3 8 8 5 4 6 2 3 3 3 4 5 5 5 4 4 20 27 30 32 34 34 35 38 38 38 37 34 31 32 33 34 37
2 2 1 4 6 7 4 6 1 3 2 6 3 2 6 8 9 3 5 4 1 2 1 2 2 2 3 8 17 22 24 28 30 31 34 37 38 38 38 37 34 32 33 36
6 4 9 6 7 8 7 7 5 7 4 5 3 6 5 10 8 2 4 4 3 5 4 6 6 8 5 5 6 11 16 21 24 28 32 33 37 36 35 36 36 36 37 38
6 5 2 3 4 8 5 5 5 4 2 3 5 6 8 7 9 9 7 6 6 4 5 6 7 1 5 5 7 10 13 17 20 23 27 31 34 36 39 36 34 36 36 37
3 3 3 2 2 4 6 5 3 2 1 4 4 5 6 7 12 9 6 6 6 6 8 7 6 5 2 1 3 7 12 15 16 21 24 29 32 35 37 36 38 38 36 34
6 4 2 1 5 8 2 3 3 4 5 5 2 6 6 7 4 8 7 5 6 7 4 2 0 2 3 4 5 8 12 14 17 18 21 26 30 33 34 36 37 37 34 33
2 4 4 7 2 2 3 7 6 4 3 4 4 13 3 8 6 7 7 5 2 4 5 5 3 2 7 8 8 12 14 16 19 19 20 24 28 31 33 34 35 33 34 34
4 1 3 4 3 3 3 4 5 4 3 7 4 12 2 9 8 7 8 6 4 1 2 4 5 9 11 13 15 15 16 21 22 22 24 25 29 31 33 34 33 32 31 32
7 2 5 7 4 3 4 3 2 6 5 9 13 17 14 14 13 6 6 7 5 5 6 6 8 9 11 13 16 17 20 24 26 26 26 27 30 32 33 33 31 29 29 30
5 6 5 6 6 3 2 6 7 4 3 4 5 9 12 10 15 14 6 8 8 7 6 7 7 7 21 24 27 25 23 23 25 27 29 31 31 30 30 30 29 28 27 28
2 5 6 3 10 6 6 14 14 15 12 14 14 21 13 15 15 11 9 7 8 8 7 8 8 11 16 24 23 20 18 17 19 24 28 30 29 28 28 27 27 25 25 26
4 4 4 4 5 4 5 14 14 15 14 14 16 20 17 18 10 3 7 8 8 8 9 9 8 12 17 17 22 26 24 22 21 22 23 25 27 27 25 23 22 23 23 24
6 5 2 3 3 5 7 4 8 13 11 10 13 18 18 14 5 3 5 6 6 7 7 6 9 16 20 20 21 22 24 25 22 21 23 20 18 20 19 20 20 20 20 21
5 4 2 3 4 5 9 3 6 4 9 11 13 14 8 9 7 3 4 3 1 4 8 13 17 17 19 19 20 23 25 23 22 20 18 18 16 17 16 17 17 17 16 16
6 5 5 3 4 8 10 5 3 4 9 2 7 5 6 7 4 4 7 7 7 8 14 17 24 23 23 24 20 21 23 21 21 19 17 15 12 11 12 11 12 13 13 11
6 6 15 12 6 7 12 7 5 4 9 2 2 3 2 2 4 9 12 10 12 11 19 23 21 23 25 22 20 22 22 21 16 14 13 11 9 7 7 7 8 8 8 7
8 8 5 8 5 11 4 4 9 4 3 6 4 6 6 7 9 8 10 9 11 16 19 22 22 28 27 18 18 21 17 14 11 8 7 6 5 4 6 8 9 9 10 10
2 6 5 9 7 5 2 3 3 4 3 3 4 5 5 7 8 11 10 9 11 16 21 23 24 29 28 23 18 17 17 11 9 6 4 2 4 5 6 10 12 12 12 13
3 1 3 4 7 2 1 4 7 7 4 4 5 7 5 8 8 10 7 10 10 17 19 23 24 22 26 21 17 17 14 11 11 10 9 9 7 10 10 10 11 13 13 14
5 3 5 3 5 3 5 4 2 6 6 7 7 7 10 7 11 8 7 6 14 18 22 24 19 21 21 16 12 11 10 11 13 14 15 14 12 13 13 13 11 10 6 8
5 7 4 4 4 4 7 8 8 8 8 8 8 8 7 7 8 7 8 14 16 19 24 20 16 16 13 11 11 8 8 12 14 15 18 18 16 16 16 18 21 14 12 12
Wind_Direction
140 96 188 208 186 163 135 132 134 164 213 155 226 262 268 276 273 255 250 246 244 239 240 237 227 217 213 215 211 214 210 214 213 211 211 214 215 216 220 221 225 228 226 229
41 211 221 193 193 198 170 132 282 63 138 159 279 277 258 258 255 236 246 243 240 247 254 246 226 219 213 211 212 211 214 213 215 214 217 215 218 222 224 225 223 221 222 229
155 223 184 157 119 128 165 168 218 212 327 323 19 293 302 285 246 255 254 245 244 230 236 241 234 220 216 212 210 213 214 216 214 217 215 215 220 228 227 226 226 225 225 229
208 226 125 123 171 139 203 254 225 136 71 241 73 286 277 270 283 297 271 259 255 252 251 239 229 217 217 215 216 215 216 217 216 217 216 215 214 217 226 228 228 227 224 229
225 161 140 148 206 151 203 21 130 113 141 27 309 157 271 290 285 271 272 280 269 255 245 256 246 232 222 219 219 218 217 216 219 219 221 220 218 224 229 234 236 235 231 230
141 107 152 163 51 14 151 74 41 42 79 283 204 188 280 215 221 255 350 80 113 90 79 60 73 90 214 221 223 220 219 220 223 222 223 225 226 226 230 231 232 234 235 235
130 199 92 125 80 1 97 90 335 342 353 235 340 218 243 278 250 239 235 238 146 138 71 309 296 286 198 205 213 217 220 224 224 224 226 228 233 235 237 240 239 235 238 239
155 265 165 193 170 175 195 163 160 197 204 270 328 244 263 251 293 188 32 99 42 333 285 291 289 265 238 196 211 215 222 228 228 228 230 231 234 237 240 243 245 246 247 249
153 241 99 118 148 145 207 209 189 87 23 43 234 293 311 316 309 330 339 19 74 47 358 340 346 113 154 180 206 218 226 231 230 231 234 235 237 238 241 244 245 248 252 251
186 141 3 351 128 26 138 169 69 2 162 268 274 275 222 303 286 269 81 59 25 21 16 16 57 92 109 250 255 241 238 237 235 234 237 240 241 241 244 246 246 247 250 250
157 123 299 86 207 168 126 179 176 150 156 185 276 263 225 226 199 112 112 90 54 49 30 339 179 149 171 194 213 229 234 239 241 238 240 243 245 244 245 245 247 247 250 250
216 140 172 202 258 264 163 188 158 147 235 228 182 255 104 122 126 123 103 70 161 164 194 210 192 190 212 218 227 240 241 249 251 250 250 254 256 250 246 247 249 249 248 247
184 50 68 6 354 354 191 201 197 121 89 228 144 259 208 61 44 25 55 21 342 292 266 299 291 256 252 253 253 255 263 265 263 254 253 259 263 256 252 253 253 251 250 249
87 123 180 185 148 99 115 37 16 181 194 243 233 264 264 303 323 316 336 316 296 284 282 287 305 297 287 287 297 297 282 272 264 261 258 261 268 265 257 258 258 254 250 249
113 188 210 248 258 57 305 305 275 238 172 205 251 285 276 300 291 295 323 298 305 308 301 297 306 304 312 311 312 314 304 288 273 266 265 266 272 273 268 263 261 256 250 248
344 181 164 250 248 231 226 234 243 257 263 260 267 264 285 273 280 284 275 283 299 286 277 275 279 281 290 303 315 319 315 306 294 280 273 273 270 271 271 266 261 254 254 251
153 142 147 243 192 165 249 236 216 233 231 237 260 273 285 284 284 268 297 301 346 17 6 359 357 345 348 344 330 322 317 309 302 294 286 279 274 273 272 266 253 248 248 248
163 143 135 209 100 220 239 307 214 226 240 241 253 261 267 280 333 262 65 66 357 345 342 326 321 327 330 327 323 319 320 317 310 299 289 282 271 271 270 260 255 252 246 241
165 137 183 175 193 312 295 260 172 117 282 277 265 276 327 340 318 179 111 119 122 287 308 311 319 316 318 315 311 310 309 308 304 299 294 289 279 266 258 252 249 244 244 238
187 182 191 98 194 209 256 247 94 95 277 73 80 40 347 357 346 273 326 327 314 290 310 313 322 318 316 314 308 302 299 299 296 297 291 282 275 269 260 245 235 231 230 234
167 207 220 230 235 275 258 197 112 214 261 202 10 317 296 255 233 281 307 304 299 290 307 311 310 304 307 304 303 298 297 286 289 293 292 285 265 240 222 224 220 223 204 198
165 167 191 218 221 244 202 78 162 190 180 171 208 223 266 293 296 275 279 282 294 299 304 306 300 301 307 298 296 288 272 278 278 278 278 267 263 241 192 187 175 170 172 160
250 187 182 180 203 225 60 114 180 148 167 232 257 265 237 263 280 294 290 303 305 302 301 307 300 297 303 304 297 285 281 265 245 207 201 213 172 166 173 162 150 145 156 155
280 139 184 65 272 232 150 167 177 191 212 263 246 265 273 270 272 272 283 295 304 307 304 314 309 293 295 299 297 286 266 249 217 162 143 141 149 149 148 145 143 144 155 152
200 122 182 252 289 339 334 313 159 195 213 262 267 242 249 260 279 264 283 280 294 299 309 319 308 292 293 287 282 276 260 222 198 163 149 142 148 153 139 125 120 120 127 145
183 200 168 222 216 172 258 262 279 286 282 279 285 286 274 216 254 288 282 286 284 292 305 307 299 292 283 270 256 230 214 213 196 174 158 152 162 150 136 123 107 101 104 109